Home > Weather > Magnitogorsk > Past weeks

Flag for Russia Weather for the Past 2 Weeks in Magnitogorsk, Russia

Now
30 °F

Passing clouds.


Feels Like: 24 °F
Forecast: 10 / 22 °F
Wind: 6 mph from Northwest

Location: Ufa

Current Time: Feb 6, 2016 at 5:40:28 AM

Latest Report: Feb 6, 2016 at 5:00 AM


Visibility: N/A

Pressure: 29.92 "Hg

Humidity: 64%

Dew point: 19 °F

Location of MagnitogorskLocation

Historic Weather in Magnitogorsk — Graph

°F

Magnitogorsk Temperature Yesterday

Maximum temperature yesterday: 34 °F (at 12:00 AM)
Minimum temperature yesterday: 32 °F (at 9:00 AM)
Average temperature yesterday: 33 °F

High & Low Weather Summary for the Past Weeks

 TemperatureHumidityPressure
High36 °F (Feb 2, 3:00 PM)100% (Feb 2, 1:30 PM)30.72 "Hg (Feb 2, 1:30 PM)
Low-17 °F (Jan 27, 11:00 PM)39% (Jan 23, 4:30 PM)29.45 "Hg (Feb 4, 7:00 AM)
Average17 °F80%30.08 "Hg
* Reported Jan 22 4:00 AM — Feb 6 4:00 AM, Magnitogorsk, Weather by CustomWeather, © 2016

Note: Actual official high and low records may vary slightly from our data, if they occured in-between our weather recording intervals... More about our weather records

Advertising

Magnitogorsk Weather History for the Previous 24 Hours

 ConditionsComfort  
Time TempWeatherWind HumidityBarometerVisibility
4:00 AM
Sat, Feb 6
32 °FPassing clouds.3 mph87%29.86 "HgN/A
3:30 AM32 °FOvercast.6 mph93%29.86 "HgN/A
3:00 AM32 °FOvercast.3 mph87%29.86 "HgN/A
2:30 AM32 °FLight snow. Overcast.3 mph93%29.86 "HgN/A
2:00 AM32 °FLight snow. Overcast.3 mph93%29.86 "HgN/A
1:30 AM32 °FOvercast.6 mph93%29.86 "HgN/A
1:00 AM32 °FOvercast.6 mph93%29.86 "HgN/A
12:30 AM32 °FOvercast.6 mph93%29.83 "HgN/A
12:00 AM32 °FOvercast.3 mph93%29.83 "HgN/A
11:30 PM
Fri, Feb 5
32 °FOvercast.3 mph93%29.83 "HgN/A
11:00 PM32 °FOvercast.3 mph87%29.83 "HgN/A
10:30 PM32 °FOvercast.3 mph93%29.80 "HgN/A
10:00 PM32 °FOvercast.3 mph93%29.80 "HgN/A
9:30 PM32 °FOvercast.3 mph93%29.80 "HgN/A
9:00 PM32 °FOvercast.1 mph93%29.80 "HgN/A
8:30 PM32 °FOvercast.3 mph93%29.80 "HgN/A
8:00 PM32 °FOvercast.1 mph93%29.77 "HgN/A
7:30 PM32 °FOvercast.6 mph93%29.77 "HgN/A
7:00 PM32 °FOvercast.6 mph93%29.77 "HgN/A
6:30 PM32 °FOvercast.3 mph93%29.77 "HgN/A
6:00 PM32 °FOvercast.3 mph93%29.74 "HgN/A
5:30 PM32 °FOvercast.3 mph93%29.74 "HgN/A
5:00 PM34 °FOvercast.1 mph87%29.74 "HgN/A
4:30 PM34 °FOvercast.1 mph87%29.74 "HgN/A
4:00 PM34 °FLight rain. Overcast.1 mph87%29.74 "HgN/A
3:30 PM34 °FLight rain. Mostly cloudy.6 mph87%29.74 "HgN/A
3:00 PM34 °FLight rain. Mostly cloudy.6 mph87%29.74 "HgN/A
2:30 PM34 °FLight rain. Overcast.6 mph87%29.74 "Hg2 mi
2:00 PM34 °FLight snow. Low clouds.6 mph87%29.74 "Hg2 mi
1:30 PM32 °FLight snow. Low clouds.6 mph93%29.74 "Hg2 mi
1:00 PM32 °FLight snow. Low clouds.6 mph93%29.74 "Hg1 mi
12:30 PM32 °FSnow. Low clouds.10 mph93%29.74 "Hg1 mi
12:00 PM32 °FLight snow. Low clouds.10 mph93%29.74 "Hg1 mi
11:30 AM32 °FSnow. Low clouds.10 mph93%29.77 "Hg1 mi
11:00 AM32 °FChilly.10 mph93%29.77 "Hg1 mi
10:30 AM32 °FSnow. Low clouds.13 mph93%29.77 "Hg1 mi
10:00 AM32 °FSnow. Low clouds.10 mph93%29.77 "Hg1 mi
9:30 AM32 °FSnow. Low clouds.15 mph93%29.80 "Hg1 mi
9:00 AM32 °FLight snow. Low clouds.15 mph93%29.77 "Hg2 mi
8:30 AM34 °FOvercast.17 mph87%29.80 "HgN/A
8:00 AM34 °FOvercast.17 mph87%29.80 "HgN/A
7:30 AM34 °FOvercast.15 mph87%29.80 "HgN/A
7:00 AM34 °FOvercast.17 mph87%29.80 "HgN/A
6:30 AM34 °FOvercast.17 mph87%29.80 "HgN/A
6:00 AM34 °FOvercast.15 mph87%29.80 "HgN/A
5:30 AM34 °FPassing clouds.10 mph81%29.80 "HgN/A
5:00 AM34 °FPassing clouds.15 mph81%29.80 "HgN/A
Weather by CustomWeather, © 2016

See weather overviewHow to use our weather pages